Change the Weather History Date:

Monday, November 5, 2012

  Actual Average Record
Temperature  
Mean Temperature 27 °F -  
Max Temperature 37 °F 39 °F 68 °F (2001)
Min Temperature 17 °F 24 °F 3 °F (1991)
Degree Days  
Heating Degree Days 38    
Moisture  
Dew Point 25 °F    
Average Humidity 81    
Maximum Humidity 100    
Minimum Humidity 65    
Precipitation  
Precipitation 0.00 in - - ()
Sea Level Pressure  
Sea Level Pressure 30.12 in    
Wind  
Wind Speed 3 mph (SE)    
Max Wind Speed 10 mph    
Max Gust Speed -    
Visibility 10 miles    
Events      
Averages and records for this station are not official NWS values.
T = Trace of Precipitation, MM = Missing Value Source: NWS Daily Summary

Daily Weather History Graph

Daily Weather History Graph

Search for Another Location

Airport or City:

Trip Planner

Search our weather history database for the weather conditions in past years. The results will help you decide how hot, cold, wet, or windy it might be!

Date:

Astronomy

Nov. 05, 2012 Rise Set
Actual Time 7:00 AM CST 4:46 PM CST
Civil Twilight 6:27 AM CST 5:18 PM CST
Nautical Twilight 5:51 AM CST 5:55 PM CST
Astronomical Twilight 5:15 AM CST 6:30 PM CST
Moon 10:24 PM CST (11/5) 12:20 PM CST (11/5)
Length of Visible Light 10h 50m
Length of Day
9h 45m
Waning Gibbous, 62% of the Moon is Illuminated
Nov 5
Waning Gibbous
Nov 6
Last Quarter
Nov 13
New
Nov 20
First Quarter
Nov 28
Full

Hourly Weather History & Observations

Time (CST) Temp. Windchill Dew Point Humidity Pressure Visibility Wind Dir Wind Speed Gust Speed Precip Events Conditions
12:10 AM 30.2 °F - 23.0 °F 75% 30.25 in 10.0 mi Calm Calm - N/A   Overcast
12:29 AM 30.2 °F - 23.0 °F 75% 30.25 in 10.0 mi Calm Calm - N/A   Overcast
12:50 AM 30.2 °F - 23.0 °F 75% 30.25 in 10.0 mi Calm Calm - N/A   Overcast
1:10 AM 30.2 °F - 23.0 °F 75% 30.25 in 10.0 mi Calm Calm - N/A   Overcast
1:29 AM 30.2 °F - 23.0 °F 75% 30.25 in 10.0 mi Calm Calm - N/A   Overcast
1:50 AM 30.2 °F - 23.0 °F 75% 30.25 in 10.0 mi Calm Calm - N/A   Overcast
2:10 AM 30.2 °F - 23.0 °F 75% 30.25 in 10.0 mi Calm Calm - N/A   Overcast
2:29 AM 28.4 °F - 23.0 °F 80% 30.25 in 10.0 mi Calm Calm - N/A   Overcast
2:50 AM 28.4 °F - 23.0 °F 80% 30.24 in 10.0 mi Calm Calm - N/A   Overcast
3:10 AM 26.6 °F - 23.0 °F 86% 30.25 in 10.0 mi Calm Calm - N/A   Overcast
3:29 AM 26.6 °F - 21.2 °F 80% 30.25 in 10.0 mi Calm Calm - N/A   Overcast
3:50 AM 26.6 °F - 21.2 °F 80% 30.25 in 10.0 mi Calm Calm - N/A   Overcast
4:10 AM 24.8 °F 20.5 °F 21.2 °F 86% 30.24 in 10.0 mi ENE 3.5 mph - N/A   Scattered Clouds
4:29 AM 23.0 °F - 21.2 °F 93% 30.25 in 10.0 mi Calm Calm - N/A   Clear
4:50 AM 23.0 °F - 21.2 °F 93% 30.24 in 10.0 mi Calm Calm - N/A   Clear
5:09 AM 21.2 °F 16.4 °F 19.4 °F 93% 30.24 in 10.0 mi NE 3.5 mph - N/A   Clear
5:30 AM 19.4 °F - 17.6 °F 93% 30.23 in 10.0 mi Calm Calm - N/A   Clear
5:49 AM 19.4 °F 14.3 °F 17.6 °F 93% 30.22 in 10.0 mi ENE 3.5 mph - N/A   Clear
6:09 AM 19.4 °F - 17.6 °F 93% 30.23 in 10.0 mi Calm Calm - N/A   Clear
6:30 AM 17.6 °F - 15.8 °F 93% 30.22 in 10.0 mi Calm Calm - N/A   Clear
6:49 AM 17.6 °F - 15.8 °F 93% 30.23 in 10.0 mi Calm Calm - N/A   Clear
7:09 AM 17.6 °F 12.3 °F 15.8 °F 93% 30.22 in 10.0 mi ENE 3.5 mph - N/A   Clear
7:30 AM 19.4 °F - 17.6 °F 93% 30.23 in 10.0 mi Calm Calm - N/A   Scattered Clouds
7:49 AM 19.4 °F - 17.6 °F 93% 30.22 in 10.0 mi Calm Calm - N/A   Mostly Cloudy
8:09 AM 23.0 °F - 21.2 °F 93% 30.23 in 10.0 mi Calm Calm - N/A   Overcast
8:30 AM 26.6 °F - 23.0 °F 86% 30.23 in 10.0 mi Calm Calm - N/A   Overcast
8:49 AM 26.6 °F - 23.0 °F 86% 30.23 in 10.0 mi Calm Calm - N/A   Overcast
9:09 AM 30.2 °F - 26.6 °F 86% 30.23 in 10.0 mi Calm Calm - N/A   Overcast
9:30 AM 30.2 °F - 26.6 °F 86% 30.23 in 10.0 mi Calm Calm - N/A   Overcast
9:49 AM 32.0 °F 26.4 °F 26.6 °F 80% 30.22 in 10.0 mi SE 5.8 mph - N/A   Mostly Cloudy
10:10 AM 32.0 °F 24.2 °F 26.6 °F 80% 30.21 in 10.0 mi SSE 9.2 mph - N/A   Mostly Cloudy
10:29 AM 33.8 °F 26.4 °F 26.6 °F 75% 30.21 in 10.0 mi SSE 9.2 mph - N/A   Mostly Cloudy
10:49 AM 32.0 °F 25.6 °F 26.6 °F 80% 30.21 in 10.0 mi ESE 6.9 mph - N/A   Mostly Cloudy
11:10 AM 33.8 °F 27.0 °F 26.6 °F 75% 30.20 in 10.0 mi SSE 8.1 mph - N/A   Overcast
11:29 AM 35.6 °F 28.6 °F 28.4 °F 75% 30.18 in 10.0 mi SSE 9.2 mph - N/A   Overcast
11:50 AM 33.8 °F 27.0 °F 26.6 °F 75% 30.17 in 10.0 mi SE 8.1 mph - N/A   Overcast
12:09 PM 35.6 °F 30.7 °F 28.4 °F 75% 30.17 in 10.0 mi South 5.8 mph - N/A   Overcast
12:29 PM 35.6 °F 28.6 °F 28.4 °F 75% 30.15 in 10.0 mi SSE 9.2 mph - N/A   Overcast
12:50 PM 35.6 °F - 28.4 °F 75% 30.15 in 10.0 mi Calm Calm - N/A   Overcast
1:09 PM 35.6 °F 30.7 °F 28.4 °F 75% 30.14 in 10.0 mi SSE 5.8 mph - N/A   Overcast
1:29 PM 35.6 °F 30.7 °F 26.6 °F 70% 30.13 in 10.0 mi SSE 5.8 mph - N/A   Overcast
1:49 PM 35.6 °F 31.7 °F 26.6 °F 70% 30.11 in 10.0 mi SE 4.6 mph - N/A   Overcast
2:09 PM 37.4 °F 32.8 °F 26.6 °F 65% 30.10 in 10.0 mi SE 5.8 mph - N/A   Overcast
2:29 PM 35.6 °F 29.9 °F 26.6 °F 70% 30.08 in 10.0 mi SSE 6.9 mph - N/A   Overcast
2:49 PM 35.6 °F 29.9 °F 26.6 °F 70% 30.08 in 10.0 mi SSE 6.9 mph - N/A   Overcast
3:10 PM 35.6 °F 31.7 °F 26.6 °F 70% 30.07 in 10.0 mi SE 4.6 mph - N/A   Overcast
3:49 PM 35.6 °F 30.7 °F 26.6 °F 70% 30.07 in 10.0 mi SE 5.8 mph - N/A   Overcast
4:10 PM 35.6 °F 30.7 °F 26.6 °F 70% 30.05 in 10.0 mi SE 5.8 mph - N/A   Overcast
4:30 PM 35.6 °F 29.9 °F 26.6 °F 70% 30.05 in 10.0 mi SE 6.9 mph - N/A   Overcast
4:49 PM 35.6 °F 30.7 °F 26.6 °F 70% 30.05 in 10.0 mi SE 5.8 mph - N/A   Overcast
5:10 PM 35.6 °F 29.9 °F 26.6 °F 70% 30.04 in 10.0 mi SE 6.9 mph - N/A   Overcast
5:29 PM 35.6 °F 29.9 °F 26.6 °F 70% 30.03 in 10.0 mi SE 6.9 mph - N/A   Overcast
5:49 PM 35.6 °F 31.7 °F 28.4 °F 75% 30.03 in 10.0 mi SE 4.6 mph - N/A   Overcast
6:10 PM 33.8 °F 29.6 °F 26.6 °F 75% 30.03 in 10.0 mi SSE 4.6 mph - N/A   Overcast
6:29 PM 33.8 °F 28.6 °F 24.8 °F 70% 30.01 in 10.0 mi SE 5.8 mph - N/A   Overcast
6:49 PM 33.8 °F 29.6 °F 26.6 °F 75% 30.00 in 10.0 mi SSE 4.6 mph - N/A   Overcast
7:10 PM 33.8 °F 28.6 °F 26.6 °F 75% 30.00 in 10.0 mi SSE 5.8 mph - N/A   Overcast
7:29 PM 33.8 °F 29.6 °F 26.6 °F 75% 29.99 in 10.0 mi SSE 4.6 mph - N/A   Overcast
7:49 PM 33.8 °F 27.0 °F 26.6 °F 75% 29.98 in 10.0 mi SSE 8.1 mph - N/A   Overcast
8:10 PM 33.8 °F 25.8 °F 28.4 °F 81% 29.97 in 10.0 mi SSE 10.4 mph - N/A   Overcast
8:29 PM 32.0 °F 26.4 °F 28.4 °F 87% 29.96 in 10.0 mi SSE 5.8 mph - N/A   Overcast
8:49 PM 32.0 °F 26.4 °F 28.4 °F 87% 29.95 in 7.0 mi SSE 5.8 mph - N/A   Overcast
9:10 PM 32.0 °F 25.6 °F 30.2 °F 93% 29.95 in 5.0 mi SSE 6.9 mph - N/A   Overcast
9:29 PM 32.0 °F 27.5 °F 30.2 °F 93% 29.93 in 7.0 mi SSE 4.6 mph - N/A   Overcast
9:49 PM 32.0 °F 27.5 °F 30.2 °F 93% 29.92 in 10.0 mi SE 4.6 mph - N/A   Overcast
10:10 PM 32.0 °F 25.6 °F 30.2 °F 93% 29.91 in 10.0 mi SSE 6.9 mph - N/A   Overcast
10:29 PM 32.0 °F 26.4 °F 30.2 °F 93% 29.90 in 5.0 mi SSE 5.8 mph - N/A   Overcast
10:49 PM 32.0 °F 26.4 °F 32.0 °F 100% 29.88 in 4.0 mi SSE 5.8 mph - N/A   Overcast
11:10 PM 33.8 °F 28.6 °F 32.0 °F 93% 29.87 in 4.0 mi SSE 5.8 mph - N/A   Overcast
11:29 PM 33.8 °F 27.7 °F 32.0 °F 93% 29.86 in 5.0 mi SSE 6.9 mph - N/A   Overcast
11:49 PM 33.8 °F 25.8 °F 32.0 °F 93% 29.85 in 5.0 mi SSE 10.4 mph - N/A   Overcast